Weather History for Wenatchee, WA

Change the Weather History Date:

Saturday, January 4, 2014

  Actual Average Record
Temperature  
Mean Temperature 29 °F 26 °F  
Max Temperature 37 °F 31 °F 51 °F (1984)
Min Temperature 20 °F 21 °F -7 °F (2004)
Degree Days  
Heating Degree Days 36 39  
Month to date heating degree days 135 157  
Since 1 July heating degree days 3203 3255  
Cooling Degree Days 0 0  
Month to date cooling degree days 0 0  
Year to date cooling degree days 0 0  
Moisture  
Dew Point 19 °F    
Average Humidity 65    
Maximum Humidity 82    
Minimum Humidity 41    
Precipitation  
Precipitation 0.00 in 0.08 in 0.46 in (2008)
Month to date precipitation 0.02 0.29  
Year to date precipitation 0.02 0.29  
Snow  
Snow 0.00 in 0.70 in - ()
Month to date snowfall T 2.5  
Since 1 July snowfall 6.5 27.4  
Snow Depth 0.00 in    
Sea Level Pressure  
Sea Level Pressure 30.40 in    
Wind  
Wind Speed 5 mph (WNW)    
Max Wind Speed 8 mph    
Max Gust Speed -    
Visibility 10 miles    
Events      
T = Trace of Precipitation, MM = Missing Value Source: NWS Daily Summary

Daily Weather History Graph

Daily Weather History Graph

Search for Another Location

Airport:

Trip Planner

Search our weather history database for the weather conditions in past years. The results will help you decide how hot, cold, wet, or windy it might be!

Date:

Astronomy

Jan. 04, 2014 Rise Set
Actual Time 7:47 AM PST 4:24 PM PST
Civil Twilight 7:12 AM PST 4:59 PM PST
Nautical Twilight 6:33 AM PST 5:38 PM PST
Astronomical Twilight 5:56 AM PST 6:15 PM PST
Moon 9:39 AM PST (1/4) 9:09 PM PST (1/4)
Length of Visible Light 9h 46m
Length of Day
8h 36m
Waxing Crescent, 16% of the Moon is Illuminated
Jan 4
Waxing Crescent
Jan 7
First Quarter
Jan 15
Full
Jan 23
Last Quarter
Jan 30
New

Hourly Weather History & Observations

Time (PST) Temp. Windchill Dew Point Humidity Pressure Visibility Wind Dir Wind Speed Gust Speed Precip Events Conditions
12:55 AM 30.9 °F 25.2 °F 19.0 °F 61% 30.28 in 10.0 mi NNW 5.8 mph - N/A   Clear
1:55 AM 30.9 °F 23.5 °F 19.9 °F 64% 30.31 in 10.0 mi NNW 8.1 mph - N/A   Clear
2:55 AM 30.9 °F - 19.9 °F 64% 30.33 in 10.0 mi Calm Calm - N/A   Clear
3:55 AM 27.0 °F 18.7 °F 19.0 °F 72% 30.34 in 10.0 mi West 8.1 mph - N/A   Clear
4:55 AM 26.1 °F 19.4 °F 19.0 °F 75% 30.36 in 10.0 mi WSW 5.8 mph - N/A   Clear
5:55 AM 26.1 °F 19.4 °F 19.0 °F 75% 30.38 in 10.0 mi North 5.8 mph - N/A   Clear
6:55 AM 26.1 °F - 19.0 °F 75% 30.40 in 10.0 mi Calm Calm - N/A   Clear
7:55 AM 21.9 °F 17.2 °F 17.1 °F 82% 30.42 in 10.0 mi East 3.5 mph - N/A   Clear
8:55 AM 27.0 °F 21.6 °F 19.9 °F 75% 30.44 in 10.0 mi NW 4.6 mph - N/A   Clear
9:55 AM 28.9 °F 22.8 °F 19.9 °F 69% 30.45 in 10.0 mi West 5.8 mph - N/A   Clear
10:55 AM 32.0 °F 28.7 °F 21.0 °F 64% 30.45 in 10.0 mi SW 3.5 mph - N/A   Clear
11:55 AM 35.1 °F - 21.0 °F 57% 30.43 in 10.0 mi Calm Calm - N/A   Clear
12:55 PM 37.0 °F 33.3 °F 21.0 °F 52% 30.41 in 10.0 mi WSW 4.6 mph - N/A   Clear
1:55 PM 39.0 °F 35.7 °F 18.0 °F 43% 30.40 in 10.0 mi SW 4.6 mph - N/A   Clear
2:55 PM 41.0 °F 39.0 °F 19.0 °F 41% 30.39 in 10.0 mi NW 3.5 mph - N/A   Clear
3:55 PM 37.9 °F 35.5 °F 19.0 °F 47% 30.39 in 10.0 mi SW 3.5 mph - N/A   Clear
4:55 PM 33.1 °F - 19.0 °F 56% 30.39 in 10.0 mi Calm Calm - N/A   Clear
5:55 PM 32.0 °F 28.7 °F 18.0 °F 56% 30.40 in 10.0 mi West 3.5 mph - N/A   Clear
6:55 PM 28.9 °F 21.9 °F 21.0 °F 72% 30.41 in 10.0 mi WNW 6.9 mph - N/A   Clear
7:55 PM 30.0 °F 25.2 °F 19.0 °F 64% 30.42 in 10.0 mi NW 4.6 mph - N/A   Clear
8:55 PM 27.0 °F 21.6 °F 19.0 °F 72% 30.43 in 10.0 mi WNW 4.6 mph - N/A   Clear
9:55 PM 28.0 °F 22.8 °F 19.0 °F 69% 30.43 in 10.0 mi WNW 4.6 mph - N/A   Clear
10:55 PM 26.1 °F 18.4 °F 19.0 °F 75% 30.45 in 10.0 mi West 6.9 mph - N/A   Clear
11:55 PM 25.0 °F 20.7 °F 19.0 °F 78% 30.48 in 10.0 mi NNE 3.5 mph - N/A   Clear